Location: Samoth
(37.3328°N, 88.7876°W)
Time: 12:16:42
(UTC+00:00)

Envisat - Pass Details

Date: 21 September 2021
Orbit: 764 x 766 km, 98.2° (Epoch: 23 October)

Event Time Altitude Azimuth Distance (km) Brightness Sun altitude
Rises 09:49:45 0° 33° (NNE) 3,236 7.1 -22.8°
Reaches altitude 10° 09:53:02 10° 56° (NE) 2,304 6.5 -22.2°
Maximum altitude 09:56:00 16° 92° (E) 1,942 6.0 -21.6°
Drops below altitude 10° 09:58:58 10° 128° (SE) 2,294 5.9 -21.0°
Sets 10:02:12 0° 150° (SSE) 3,214 6.4 -20.4°
